Probability
3 84 100 100 100 100 100 100 100 97 97 58 26 3 0 0 0 0 0 0 0 0 0 0 0 0 0 0 0 0 0 0 0 0 0 0 0 0 0 0 0 0 0
6 94 100 100 100 100 100 100 100 94 77 45 13 3 0 0 0 0 0 0 0 0 0 0 0 0 0 0 0 0 0 0 0 0 0 0 0 0 0 0 0 0 0
55 94 100 100 100 100 100 100 97 87 58 29 10 0 0 3 0 0 0 0 0 0 0 0 0 0 0 0 0 0 0 0 0 0 0 0 0 0 0 0 0 0 0
65 90 97 100 100 100 100 100 94 65 39 13 3 0 3 3 0 3 0 0 0 0 0 0 0 0 0 0 0 0 0 0 0 0 0 0 0 0 0 0 0 0 0
19 55 100 100 100 100 100 100 74 52 32 3 0 0 3 3 0 3 0 0 0 0 0 0 0 0 0 0 0 0 0 0 0 0 0 0 0 0 0 0 0 0 0
3 45 100 100 100 100 100 97 61 42 16 3 0 0 0 0 0 0 0 0 0 0 0 0 0 0 0 0 0 0 0 0 0 0 0 0 0 0 0 0 0 0 0
6 42 90 100 100 100 94 81 58 35 6 3 0 0 0 0 0 0 0 0 0 0 0 0 0 0 0 0 0 0 0 0 0 0 0 0 0 0 0 0 0 0 0
10 35 81 100 97 97 94 81 58 35 6 0 0 0 0 0 0 0 0 0 0 0 0 0 0 0 0 0 0 0 0 0 0 0 0 0 0 0 0 0 0 0 0
6 23 16 39 42 71 61 74 58 35 10 3 0 0 0 0 0 0 0 0 0 0 0 0 0 0 0 0 0 0 0 0 0 0 0 0 0 0 0 0 0 0 0
0 0 0 3 0 6 10 16 16 23 3 3 0 0 0 0 0 0 0 0 0 0 0 0 0 0 0 0 0 0 0 0 0 0 0 0 0 0 0 0 0 0 0
0 0 0 0 0 0 0 0 3 3 0 0 0 0 0 0 0 0 0 0 0 0 0 0 0 0 0 0 0 0 0 0 0 0 0 0 0 0 0 0 0 0 0
0 0 0 0 0 0 0 0 0 0 0 0 0 0 0 0 0 0 0 0 0 0 0 0 0 0 0 0 0 0 0 0 0 0 0 0 0 0 0 0 0 0 0
0 0 0 0 0 0 0 0 0 0 0 0 0 0 0 0 0 0 0 0 0 0 0 0 0 0 0 0 0 0 0 0 0 0 0 0 0 0 0 0 0 0 0
0 0 0 0 0 0 0 0 0 0 0 0 0 0 0 0 0 0 0 0 0 0 0 0 0 0 0 0 0 0 0 0 0 0 0 0 0 0 0 0 0 0 0
0 0 0 0 0 0 0 0 0 0 0 0 0 0 0 0 0 0 0 0 0 0 0 0 0 0 0 0 0 0 0 0 0 0 0 0 0 0 0 0 0 0 0
0 0 0 0 0 0 0 0 0 0 0 0 0 0 0 0 0 0 0 0 0 0 0 0 0 0 0 0 0 0 0 0 0 0 0 0 0 0 0 0 0 0 0
0 0 0 0 0 0 0 0 0 0 0 0 0 0 0 0 0 0 0 0 0 0 0 0 0 0 0 0 0 0 0 0 0 0 0 0 0 0 0 0 0 0 0
0 0 0 0 0 0 0 0 0 0 0 0 0 0 0 0 0 0 0 0 0 0 0 0 0 0 0 0 0 0 0 0 0 0 0 0 0 0 0 0 0 0 0
0 0 0 0 0 0 0 0 0 0 0 0 0 0 0 0 0 0 0 0 0 0 0 0 0 0 0 0 0 0 0 0 0 0 0 0 0 0 0 0 0 0 0
0 0 0 0 0 0 0 0 0 0 0 0 0 0 0 0 0 0 0 0 0 0 0 0 0 0 0 0 0 0 0 0 0 0 0 0 0 0 0 0 0 0 0
0 0 0 0 0 0 0 0 0 0 0 0 0 0 0 0 0 0 0 0 0 0 0 0 0 0 0 0 0 0 0 0 0 0 0 0 0 0 0 0 0 0 0
0 0 0 0 0 0 0 0 0 0 0 0 0 0 0 0 0 0 0 0 0 0 0 0 0 0 0 0 0 0 0 0 0 0 0 0 0 0 0 0 0 0 0
0 0 0 0 0 0 0 0 0 0 0 0 0 0 0 0 0 0 0 0 0 0 0 0 0 0 0 0 0 0 0 0 0 0 0 0 0 0 0 0 0 0 0
0 0 0 0 0 0 0 0 0 0 0 0 0 0 0 0 0 0 0 0 0 0 0 0 0 0 0 0 0 0 0 0 0 0 0 0 0 0 0 0 0 0 0
0 0 0 0 0 0 0 0 0 0 0 0 0 0 0 0 0 0 0 0 0 0 0 0 0 0 0 0 0 0 0 0 0 0 0 0 0 0 0 0 0 0 0
0 0 0 0 0 0 0 0 0 0 0 0 0 0 0 0 0 0 0 0 0 0 0 0 0 0 0 0 0 0 0 0 0 0 0 0 0 0 0 0 0 0 0
Height
5895 5896 5897 5899 5899 5900 5900 5900 5900 5900 5901 5901 5901 5901 5900 5900 5900 5900 5900 5899 5899 5898 5897 5897 5896 5895 5895 5894 5893 5892 5891 5890 5888 5887 5886 5885 5884 5882 5881 5880 5878 5877 5876
5894 5895 5896 5897 5898 5899 5899 5899 5899 5900 5900 5900 5900 5900 5900 5900 5899 5899 5899 5898 5897 5897 5896 5895 5895 5894 5893 5892 5891 5890 5889 5887 5886 5885 5884 5882 5881 5880 5878 5877 5876 5875 5874
5892 5893 5894 5895 5897 5897 5898 5898 5898 5899 5899 5899 5899 5899 5899 5899 5898 5898 5897 5897 5896 5895 5895 5894 5893 5892 5891 5890 5889 5888 5887 5885 5884 5883 5881 5880 5878 5877 5876 5874 5873 5872 5871
5890 5891 5892 5894 5895 5896 5896 5897 5898 5898 5898 5898 5898 5898 5898 5898 5897 5897 5896 5895 5894 5894 5893 5892 5891 5890 5889 5888 5887 5886 5884 5882 5881 5880 5878 5877 5876 5874 5873 5872 5871 5869 5868
5888 5889 5891 5892 5893 5894 5895 5896 5897 5897 5897 5897 5897 5897 5897 5896 5896 5895 5894 5893 5892 5891 5890 5889 5888 5887 5886 5885 5884 5883 5881 5879 5878 5877 5875 5874 5873 5872 5870 5869 5868 5866 5865
5885 5887 5888 5890 5891 5893 5894 5895 5895 5896 5896 5896 5896 5896 5895 5894 5894 5893 5892 5891 5890 5889 5888 5887 5886 5885 5883 5882 5881 5880 5878 5877 5875 5874 5873 5871 5870 5869 5867 5866 5865 5863 5862
5883 5885 5886 5888 5889 5891 5892 5893 5894 5894 5894 5894 5894 5893 5893 5892 5891 5890 5889 5888 5887 5886 5885 5884 5883 5882 5881 5879 5878 5877 5875 5874 5872 5871 5870 5868 5867 5865 5864 5863 5862 5860 5859
5880 5882 5884 5886 5887 5889 5890 5891 5891 5892 5892 5892 5892 5891 5890 5889 5888 5887 5886 5885 5884 5883 5882 5881 5880 5879 5878 5877 5875 5874 5872 5871 5869 5868 5867 5865 5863 5862 5861 5859 5858 5857 5856
5877 5880 5882 5883 5885 5886 5887 5888 5889 5889 5889 5889 5889 5888 5887 5886 5885 5884 5883 5882 5881 5880 5879 5878 5877 5876 5875 5873 5872 5870 5869 5867 5866 5864 5863 5862 5860 5859 5857 5856 5855 5854 5852
5874 5877 5879 5881 5882 5883 5884 5885 5886 5886 5886 5886 5886 5885 5884 5883 5882 5881 5880 5879 5878 5877 5875 5874 5873 5872 5871 5870 5869 5867 5865 5864 5863 5861 5860 5858 5856 5855 5854 5853 5851 5850 5849
5871 5873 5876 5877 5879 5880 5881 5882 5883 5883 5883 5882 5882 5881 5881 5880 5878 5877 5876 5876 5874 5873 5872 5871 5869 5868 5867 5866 5865 5864 5862 5860 5859 5857 5856 5854 5853 5851 5850 5849 5847 5846 5845
5867 5870 5872 5874 5875 5876 5877 5878 5879 5879 5879 5878 5878 5877 5877 5876 5874 5873 5872 5872 5871 5869 5868 5867 5865 5864 5863 5862 5860 5859 5858 5856 5854 5853 5852 5850 5849 5847 5846 5844 5843 5842 5840
5863 5865 5867 5869 5871 5872 5873 5875 5875 5875 5875 5874 5874 5873 5873 5872 5871 5870 5869 5868 5866 5865 5864 5863 5861 5860 5859 5857 5856 5854 5853 5852 5850 5848 5846 5845 5844 5842 5841 5839 5838 5837 5836
5858 5860 5863 5865 5866 5868 5869 5870 5871 5871 5871 5870 5870 5869 5869 5868 5867 5866 5865 5863 5862 5861 5860 5858 5857 5856 5854 5852 5851 5849 5848 5847 5845 5843 5841 5839 5838 5837 5836 5834 5833 5832 5830
5853 5856 5858 5860 5862 5863 5864 5865 5866 5867 5867 5866 5866 5865 5864 5864 5863 5862 5860 5859 5858 5856 5855 5853 5852 5851 5849 5847 5845 5844 5842 5841 5840 5838 5836 5834 5832 5831 5829 5828 5827 5826 5824
5847 5850 5853 5855 5858 5859 5860 5861 5861 5862 5862 5862 5861 5860 5860 5859 5858 5857 5856 5855 5853 5851 5850 5848 5846 5845 5844 5842 5840 5838 5836 5835 5833 5831 5829 5828 5826 5824 5823 5821 5820 5819 5818
5841 5844 5847 5850 5852 5854 5855 5856 5856 5856 5856 5856 5856 5855 5854 5854 5853 5852 5851 5850 5848 5846 5844 5842 5840 5838 5837 5835 5833 5831 5829 5828 5826 5824 5822 5821 5819 5817 5816 5814 5813 5811 5810
5835 5838 5841 5843 5845 5847 5849 5849 5850 5851 5851 5851 5850 5850 5849 5848 5847 5846 5845 5844 5842 5840 5838 5836 5834 5832 5829 5827 5825 5823 5821 5820 5818 5816 5814 5812 5811 5809 5807 5806 5805 5803 5802
5829 5832 5835 5837 5839 5840 5842 5843 5844 5844 5845 5845 5844 5844 5843 5842 5841 5839 5838 5837 5835 5833 5831 5829 5827 5824 5822 5820 5817 5815 5813 5811 5809 5807 5806 5803 5801 5800 5798 5796 5795 5795 5794
5823 5826 5828 5830 5832 5833 5834 5836 5837 5837 5838 5838 5837 5837 5836 5835 5833 5832 5831 5829 5827 5825 5823 5820 5818 5815 5813 5810 5807 5805 5804 5802 5800 5798 5796 5794 5791 5789 5788 5786 5785 5785 5784
5816 5819 5821 5824 5825 5827 5828 5829 5830 5830 5830 5830 5830 5829 5828 5827 5826 5824 5823 5821 5818 5816 5814 5811 5808 5805 5803 5799 5797 5795 5793 5791 5789 5787 5785 5783 5781 5779 5777 5776 5775 5774 5773
5809 5811 5814 5816 5818 5820 5821 5822 5823 5823 5823 5823 5822 5821 5820 5818 5817 5815 5813 5811 5809 5807 5804 5801 5798 5795 5793 5789 5785 5782 5781 5780 5778 5774 5772 5771 5770 5767 5766 5765 5763 5762 5762
5801 5804 5806 5808 5810 5812 5814 5815 5816 5816 5816 5815 5814 5813 5812 5810 5808 5806 5804 5801 5799 5796 5794 5791 5788 5784 5781 5778 5774 5770 5767 5767 5765 5762 5760 5758 5756 5755 5754 5752 5751 5750 5750
5794 5796 5799 5801 5803 5804 5806 5807 5807 5808 5807 5807 5806 5805 5803 5802 5800 5797 5795 5792 5789 5786 5784 5780 5777 5773 5770 5767 5763 5759 5755 5752 5750 5748 5747 5744 5742 5741 5740 5739 5738 5737 5737
5786 5788 5791 5793 5795 5796 5797 5798 5799 5799 5799 5798 5797 5796 5794 5792 5790 5788 5785 5782 5779 5776 5773 5770 5766 5762 5758 5755 5751 5747 5742 5738 5735 5732 5731 5730 5727 5725 5724 5723 5723 5723 5723
5778 5780 5783 5785 5787 5788 5788 5789 5790 5790 5789 5788 5787 5786 5784 5782 5780 5778 5775 5773 5770 5766 5763 5759 5755 5751 5747 5743 5739 5734 5729 5725 5721 5717 5713 5712 5710 5708 5707 5706 5707 5708 5708
Wind_Speed
17 16 15 14 12 10 8 7 6 6 6 6 7 8 9 10 11 11 11 12 12 13 13 14 14 15 15 15 14 14 13 14 14 15 15 15 16 16 16 16 15 15 15
17 16 15 13 11 9 8 7 6 6 6 7 8 9 10 11 12 12 13 13 14 14 14 15 15 15 15 14 14 14 14 15 15 16 16 16 17 17 17 16 16 16 15
17 16 14 12 10 9 7 7 7 7 8 8 9 10 11 12 12 12 13 13 14 14 15 15 15 15 15 14 14 15 15 16 17 17 17 18 17 17 17 17 17 16 16
15 14 13 11 10 9 8 8 8 8 9 9 10 10 11 12 12 13 13 13 14 14 15 15 16 16 15 16 16 16 17 18 18 17 18 18 18 18 18 18 17 17 16
16 15 13 12 11 10 9 9 10 10 10 11 11 12 12 13 13 14 14 14 14 15 15 15 16 16 16 16 16 16 17 18 19 19 19 19 19 19 19 18 18 17 17
17 16 14 13 12 12 11 11 11 11 11 12 13 14 14 15 15 15 15 15 14 15 15 16 16 16 16 16 17 17 18 18 18 18 19 19 19 19 19 18 18 18 18
19 17 16 15 14 14 14 14 13 13 13 13 14 15 16 16 16 16 16 15 15 15 16 16 16 16 16 17 17 18 18 18 18 18 18 18 18 18 18 18 18 18 18
21 19 18 17 17 17 16 16 16 15 15 15 15 16 17 17 17 17 17 16 16 16 17 17 17 17 17 17 18 18 18 18 18 18 18 18 17 17 17 17 17 18 18
22 21 20 20 20 19 19 18 18 17 17 17 16 16 17 17 17 17 17 17 17 17 17 18 18 18 18 18 18 19 19 19 19 19 18 18 18 18 18 18 18 18 19
24 23 23 23 22 22 21 20 19 19 18 18 18 18 17 17 18 18 18 18 18 18 19 19 19 19 19 19 19 20 20 20 20 19 19 19 19 19 19 19 20 20 20
26 26 25 25 25 24 23 22 21 20 20 20 20 19 18 18 18 18 18 19 19 20 20 21 21 21 21 21 21 21 21 22 22 21 21 21 21 21 21 21 21 21 21
28 28 27 27 27 26 25 24 23 22 22 22 21 20 19 19 19 19 20 20 20 21 22 23 23 23 23 23 23 23 23 24 24 24 23 23 23 23 23 23 23 23 23
31 30 29 29 29 28 27 25 24 24 24 23 23 22 21 20 20 21 21 22 22 23 24 24 25 25 26 26 26 26 25 25 26 26 26 25 25 25 25 25 24 24 24
33 32 31 31 30 29 28 26 25 25 25 24 24 23 22 21 21 22 23 23 24 25 26 26 27 27 28 29 29 29 28 27 27 28 28 28 27 27 27 27 27 26 26
35 33 32 32 31 30 29 28 26 26 25 25 24 24 23 23 23 24 25 26 27 28 28 29 29 29 30 31 32 32 32 31 30 30 30 30 30 29 29 28 28 28 28
35 34 33 33 31 30 29 29 28 27 27 26 25 25 25 25 25 26 27 28 29 30 31 31 32 32 32 33 34 35 35 34 34 33 33 32 32 32 31 30 30 30 30
36 35 35 34 32 31 30 30 29 28 27 27 27 26 27 28 28 28 29 29 31 32 32 33 34 35 35 36 37 38 38 37 37 37 36 36 35 35 34 33 32 32 31
37 36 36 35 33 32 31 30 30 29 28 28 28 28 29 30 30 31 31 32 33 34 34 35 36 37 38 39 40 41 41 41 40 40 39 39 38 38 37 36 35 34 34
38 37 36 35 34 33 32 31 30 30 29 29 30 31 31 32 33 33 34 35 36 36 37 38 39 40 41 42 43 43 44 44 44 44 43 42 42 41 40 40 38 37 36
38 37 36 35 34 34 33 33 32 32 32 32 32 33 34 34 35 36 37 38 39 39 40 41 42 43 43 44 45 46 46 46 47 46 46 46 45 45 44 43 42 41 40
39 38 37 36 36 35 35 34 34 34 34 34 35 36 36 37 38 38 39 40 41 42 42 43 44 45 46 47 48 48 48 49 49 49 49 49 48 48 47 46 45 44 43
39 39 39 38 38 37 36 36 36 36 36 36 37 37 38 39 40 41 42 42 43 44 45 46 46 47 48 49 50 51 51 51 50 51 52 52 51 50 49 48 47 47 46
40 40 40 40 39 38 38 37 37 37 37 38 38 39 39 41 42 43 44 45 46 46 47 47 48 49 49 50 51 53 54 54 54 54 55 54 53 52 51 50 49 49 49
41 42 41 41 40 39 38 37 37 37 38 38 39 40 41 42 43 44 45 46 47 48 48 48 49 50 51 51 53 54 55 56 57 56 56 56 55 55 54 53 52 51 51
42 42 42 41 40 39 38 38 37 38 38 39 40 41 42 43 43 44 45 46 47 47 48 48 49 50 51 52 53 54 56 57 58 59 59 59 59 58 58 57 55 54 53
41 42 42 41 40 39 39 39 39 40 41 42 43 43 43 43 44 45 45 45 46 46 47 48 49 50 51 52 54 55 57 59 60 62 62 62 62 61 60 59 57 56 55
Wind_Direction
231 234 237 239 242 244 248 252 259 269 282 293 302 307 310 313 315 316 315 314 313 311 311 312 312 312 312 312 311 309 306 303 302 302 302 301 301 300 300 300 301 302 303
234 235 236 236 237 239 246 255 264 275 285 295 302 305 307 308 309 308 309 309 308 308 309 309 310 310 311 310 309 307 305 302 300 300 299 297 296 296 296 297 297 298 299
233 232 231 232 234 239 249 262 273 281 288 295 299 302 304 306 306 307 307 307 306 306 306 306 307 307 308 307 306 305 303 301 299 298 296 294 293 292 293 294 295 295 296
235 232 231 232 236 243 253 266 275 282 288 292 295 298 301 303 304 305 306 305 304 305 305 305 305 305 305 305 305 304 302 300 299 297 294 292 291 290 290 291 291 292 293
236 235 235 238 242 248 256 263 271 278 283 287 291 295 298 301 302 303 304 304 303 303 304 304 305 304 304 304 303 303 301 300 300 298 296 295 293 292 290 289 289 289 289
235 237 240 244 249 253 258 261 265 269 275 281 286 292 296 300 302 302 303 303 302 302 304 304 304 304 303 303 302 300 299 297 296 295 295 295 294 293 292 290 289 288 288
235 239 243 248 254 258 261 262 262 263 267 275 283 290 295 299 301 301 301 301 300 300 302 302 302 301 300 299 298 297 296 295 294 293 292 292 292 292 292 291 290 289 289
236 240 245 251 256 260 263 264 263 263 266 272 280 287 293 297 299 300 300 299 299 299 300 300 301 300 297 296 295 295 294 294 293 292 292 292 292 291 291 291 291 290 291
237 242 248 253 258 262 263 264 265 267 271 275 281 286 291 293 296 297 298 298 298 298 298 298 298 298 296 294 293 293 293 294 293 292 291 291 291 291 290 290 290 290 290
239 244 250 255 259 262 263 265 267 270 275 281 285 287 290 291 293 295 296 296 297 297 297 297 296 295 294 293 291 291 291 292 291 290 289 288 288 288 289 289 289 289 289
240 245 250 255 259 261 263 265 269 274 280 284 288 289 290 291 292 293 294 294 295 296 295 295 295 294 293 291 290 289 290 290 290 288 287 285 285 284 285 286 287 287 288
241 245 250 255 258 260 262 265 270 276 281 285 288 290 291 291 292 292 293 293 294 294 294 294 294 293 292 291 290 289 289 290 290 288 286 285 284 283 282 283 283 284 286
241 245 249 253 256 259 261 265 270 275 280 284 287 289 290 291 292 292 292 293 293 293 292 292 292 292 291 291 290 289 290 290 290 289 287 286 285 284 282 281 281 281 283
239 243 247 251 254 258 261 264 268 273 277 281 284 286 288 289 290 290 291 291 292 291 291 290 290 290 290 289 289 289 289 289 289 289 289 288 287 285 283 281 280 280 280
238 241 244 248 252 256 261 264 268 271 274 277 280 283 284 286 287 288 289 290 291 290 290 290 289 288 288 288 287 287 288 288 288 287 287 287 287 286 284 282 280 278 277
237 240 243 245 248 253 258 262 266 269 272 274 276 279 282 283 284 286 288 289 289 290 290 290 290 289 288 287 287 286 286 286 286 285 285 285 285 284 283 281 279 278 276
236 240 243 246 248 252 255 259 263 266 270 273 274 277 279 281 283 284 286 288 288 289 290 290 290 290 289 288 287 286 286 285 284 283 283 283 282 282 281 280 279 277 275
236 240 243 247 250 252 255 258 261 264 267 270 273 275 278 280 282 284 286 287 287 288 288 288 288 288 287 287 286 285 284 283 282 281 281 280 279 279 278 278 277 276 274
236 239 243 247 250 253 255 258 261 264 266 269 272 274 276 279 281 283 285 286 287 288 288 288 288 287 286 285 284 284 283 282 282 281 280 279 278 277 275 274 274 274 273
237 239 242 246 249 253 257 260 263 265 267 270 272 273 275 278 281 283 285 286 287 288 288 288 288 288 287 286 285 285 284 283 282 281 280 278 277 276 274 273 272 271 271
238 240 243 245 248 252 257 261 264 266 269 272 274 275 277 279 281 283 285 286 287 287 288 288 288 288 288 287 286 286 285 284 284 282 280 278 277 275 274 273 272 270 269
239 241 244 246 249 253 257 260 264 266 269 271 273 275 277 280 282 284 285 286 286 287 288 288 289 288 288 288 287 287 286 285 285 283 281 280 278 276 274 272 271 270 269
239 242 245 249 252 255 258 260 263 266 268 270 272 274 276 278 280 282 284 285 286 287 288 289 289 289 288 288 287 287 287 287 285 283 283 281 279 277 275 273 270 269 268
240 243 246 250 254 257 259 261 263 265 267 270 273 275 276 277 279 281 283 284 286 287 288 288 289 289 289 288 288 288 287 287 287 286 283 281 279 276 274 271 269 268 267
240 244 247 250 253 257 260 262 264 267 269 272 274 275 276 277 278 280 282 284 285 286 287 288 288 289 289 289 289 288 288 287 286 285 284 282 279 276 272 269 267 266 265
241 244 247 250 253 256 260 264 267 270 273 274 275 276 276 277 279 281 283 284 285 286 287 288 288 289 290 290 291 290 289 288 287 285 284 281 278 275 272 268 265 263 263